M I D A S
Marine Information and Data Acquisition System
Tripno 177 of the Zeeleeuw from 2001-11-12 07:05:00 to 2001-11-14 18:20:00
Back to CruiseResearch ActivitiesStationsMapUnderway DataData graphs

EquipmentUnitsComments
TimeDGPSUTC
LatitudeDGPSDM.mWGS84
LongitudeDGPSDM.mWGS84
SpeedMeteo Stationm/sRelative wind speed
DirectionMeteo StationdegRelative wind direction
TemperatureMeteo Stationdeg CelciusAir temperature
PressureMeteo StationPaAtmospheric pressure
HumidityMeteo Station%Relative humidity
Missing or incorrect values are displayed as -999
Metereological data collected by the RV Zeeleeuw from 2001-11-12 07:05:00 to 2001-11-14 18:20:00
                                                                                    Next 1000 lines
Time Latitude Longitude Speed Direction Temperature Pressure Humidity
2001-11-12 08:47:18 51°13.689 2°55.907 3.1 235 11 101470 91
2001-11-12 08:47:23 51°13.689 2°55.907 3.2 223 11 101470 91
2001-11-12 08:47:28 51°13.689 2°55.907 3.3 210 11 101470 91
2001-11-12 08:47:33 51°13.689 2°55.907 2.9 214 11 101470 91
2001-11-12 08:47:38 51°13.689 2°55.907 2.6 219 11 101480 91
2001-11-12 08:47:43 51°13.689 2°55.907 2.6 221 11 101480 91
2001-11-12 08:47:48 51°13.689 2°55.907 2.9 200 11 101470 91
2001-11-12 08:47:53 51°13.69 2°55.907 3 209 11 101470 91
2001-11-12 08:47:58 51°13.69 2°55.907 2.7 214 11 101470 91
2001-11-12 08:48:03 51°13.69 2°55.907 2.6 218 11 101470 91
2001-11-12 08:48:08 51°13.69 2°55.907 3 209 11 101470 91
2001-11-12 08:48:13 51°13.69 2°55.907 3.3 223 11 101470 91
2001-11-12 08:48:18 51°13.69 2°55.907 3.2 208 11 101470 91
2001-11-12 08:48:23 51°13.69 2°55.907 2.9 217 11 101470 91
2001-11-12 08:48:28 51°13.69 2°55.907 3.1 206 11 101470 91
2001-11-12 08:48:33 51°13.689 2°55.907 3.3 210 11 101470 91
2001-11-12 08:48:38 51°13.689 2°55.907 2.7 220 11 101470 91
2001-11-12 08:48:43 51°13.689 2°55.906 2.7 231 11 101470 91
2001-11-12 08:48:48 51°13.689 2°55.906 2.6 225 11 101470 91
2001-11-12 08:48:53 51°13.689 2°55.906 2.5 213 11 101470 91
2001-11-12 08:48:58 51°13.689 2°55.906 3.4 219 11 101470 91
2001-11-12 08:49:03 51°13.689 2°55.906 3.2 219 11 101470 91
2001-11-12 08:49:08 51°13.689 2°55.906 2.1 316 11 101470 91
2001-11-12 08:49:13 51°13.689 2°55.906 2.1 199 11 101470 91
2001-11-12 08:49:18 51°13.689 2°55.906 2.6 221 11 101480 91
2001-11-12 08:49:23 51°13.689 2°55.906 2.5 219 11 101480 91
2001-11-12 08:49:28 51°13.689 2°55.906 2.6 316 11 101480 91
2001-11-12 08:49:33 51°13.689 2°55.906 2.3 220 11 101480 91
2001-11-12 08:49:38 51°13.689 2°55.907 2.4 209 11 101480 91
2001-11-12 08:49:43 51°13.689 2°55.907 2.5 209 11 101480 91
2001-11-12 08:49:48 51°13.689 2°55.907 2.7 203 11 101480 91
2001-11-12 08:49:53 51°13.689 2°55.906 2.5 227 11 101480 91
2001-11-12 08:49:58 51°13.689 2°55.906 2.5 209 11 101470 91
2001-11-12 08:50:03 51°13.689 2°55.906 2.5 205 11 101470 91
2001-11-12 08:50:08 51°13.689 2°55.907 2.6 210 11 101470 91
2001-11-12 08:50:13 51°13.689 2°55.906 3.2 223 11 101470 91
2001-11-12 08:50:18 51°13.689 2°55.906 2.9 210 11 101480 91
2001-11-12 08:50:23 51°13.689 2°55.906 2.9 210 11 101480 91
2001-11-12 08:50:28 51°13.689 2°55.906 2.8 221 11 101470 91
2001-11-12 08:50:33 51°13.689 2°55.906 2.1 210 11 101470 91
2001-11-12 08:50:38 51°13.689 2°55.907 2.2 200 11 101470 91
2001-11-12 08:50:43 51°13.689 2°55.906 1.9 204 11 101470 91
2001-11-12 08:50:48 51°13.689 2°55.906 2.3 221 11 101480 91
2001-11-12 08:50:53 51°13.689 2°55.906 2.5 219 11 101480 91
2001-11-12 08:50:58 51°13.689 2°55.906 3.1 224 11 101470 91
2001-11-12 08:51:03 51°13.689 2°55.906 3.1 209 11 101470 91
2001-11-12 08:51:08 51°13.689 2°55.906 2.7 215 11 101470 91
2001-11-12 08:51:13 51°13.69 2°55.906 2.6 223 11 101470 91
2001-11-12 08:51:18 51°13.69 2°55.906 2.6 200 11 101470 91
2001-11-12 08:51:23 51°13.69 2°55.906 2.4 207 11 101470 91
2001-11-12 08:51:28 51°13.69 2°55.906 2.2 205 11 101470 91
2001-11-12 08:51:33 51°13.689 2°55.906 2.3 213 11 101470 91
2001-11-12 08:51:38 51°13.689 2°55.906 2.3 213 11 101470 91
2001-11-12 08:51:43 51°13.689 2°55.906 2 205 11 101470 91
2001-11-12 08:51:48 51°13.689 2°55.906 2.2 198 11 101470 91
2001-11-12 08:51:53 51°13.69 2°55.906 2.8 196 11 101470 91
2001-11-12 08:51:58 51°13.69 2°55.906 2.6 197 11 101470 91
2001-11-12 08:52:03 51°13.69 2°55.906 2.3 198 11 101470 91
2001-11-12 08:52:08 51°13.69 2°55.906 2.9 222 11 101470 91
2001-11-12 08:52:13 51°13.69 2°55.907 2.2 236 11 101470 91
2001-11-12 08:52:18 51°13.69 2°55.907 2.1 234 11 101470 91
2001-11-12 08:52:23 51°13.69 2°55.907 2.2 239 11 101470 91
2001-11-12 08:52:28 51°13.69 2°55.907 2 217 11 101470 91
2001-11-12 08:52:33 51°13.69 2°55.907 1.9 205 11 101470 91
2001-11-12 08:52:38 51°13.69 2°55.907 1.8 206 11 101470 91
2001-11-12 08:52:43 51°13.69 2°55.907 1.8 214 11 101470 91
2001-11-12 08:52:48 51°13.69 2°55.907 1.6 211 11 101470 91
2001-11-12 08:52:53 51°13.69 2°55.906 2.4 205 11 101470 91
2001-11-12 08:52:58 51°13.69 2°55.907 2.2 211 11 101470 91
2001-11-12 08:53:03 51°13.69 2°55.907 1.9 205 11 101470 91
2001-11-12 08:53:08 51°13.69 2°55.907 1.7 196 11 101470 91
2001-11-12 08:53:13 51°13.69 2°55.907 1.6 203 11 101470 91
2001-11-12 08:53:18 51°13.69 2°55.907 1.8 198 11 101470 91
2001-11-12 08:53:23 51°13.69 2°55.907 2 208 11 101470 91
2001-11-12 08:53:28 51°13.69 2°55.907 1.9 217 11 101470 91
2001-11-12 08:53:33 51°13.69 2°55.907 2.2 205 11 101470 91
2001-11-12 08:53:38 51°13.69 2°55.907 2 206 11 101470 91
2001-11-12 08:53:43 51°13.69 2°55.906 2 219 11 101470 91
2001-11-12 08:53:48 51°13.69 2°55.907 2 225 11 101470 91
2001-11-12 08:53:53 51°13.69 2°55.907 1.9 214 11 101470 91
2001-11-12 08:53:58 51°13.69 2°55.906 1.9 224 11 101470 91
2001-11-12 08:54:03 51°13.69 2°55.907 2.2 211 11 101470 91
2001-11-12 08:54:08 51°13.69 2°55.907 1.9 212 11 101470 91
2001-11-12 08:54:13 51°13.69 2°55.906 1.8 219 11 101470 91
2001-11-12 08:54:18 51°13.69 2°55.907 1.6 228 11 101470 91
2001-11-12 08:54:23 51°13.69 2°55.907 1.7 209 11 101470 91
2001-11-12 08:54:28 51°13.69 2°55.907 1.4 196 11 101470 91
2001-11-12 08:54:33 51°13.69 2°55.906 1.9 224 11 101470 91
2001-11-12 08:54:38 51°13.69 2°55.906 1.9 198 11 101470 91
2001-11-12 08:54:43 51°13.69 2°55.905 2.1 202 11 101470 91
2001-11-12 08:54:48 51°13.69 2°55.905 2.7 214 11 101470 91
2001-11-12 08:54:53 51°13.69 2°55.906 2.6 214 11 101470 91
2001-11-12 08:54:58 51°13.69 2°55.906 2.4 188 11 101470 91
2001-11-12 08:55:03 51°13.69 2°55.906 2.5 201 11 101470 91
2001-11-12 08:55:08 51°13.69 2°55.906 2.2 211 11 101470 91
2001-11-12 08:55:13 51°13.69 2°55.906 2.3 201 11 101470 91
2001-11-12 08:55:18 51°13.69 2°55.906 2.6 207 11 101470 91
2001-11-12 08:55:23 51°13.69 2°55.906 2.2 200 11 101470 91
2001-11-12 08:55:28 51°13.69 2°55.906 2.5 205 11 101470 91
2001-11-12 08:55:33 51°13.69 2°55.906 2.2 211 11 101470 91
2001-11-12 08:55:38 51°13.69 2°55.906 2.1 203 11 101470 91
2001-11-12 08:55:43 51°13.69 2°55.906 2 218 11 101470 91
2001-11-12 08:55:48 51°13.69 2°55.906 1.9 215 11 101470 91
2001-11-12 08:55:53 51°13.69 2°55.907 1.7 223 11 101470 91
2001-11-12 08:55:58 51°13.69 2°55.907 1.4 200 11 101470 91
2001-11-12 08:56:03 51°13.69 2°55.907 1.9 205 11 101470 91
2001-11-12 08:56:08 51°13.69 2°55.907 1.8 199 11 101470 92
2001-11-12 08:56:11 51°13.69 2°55.907 2.2 208 11 101470 92
2001-11-12 08:56:14 51°13.69 2°55.907 2.1 211 11 101470 92
2001-11-12 08:56:18 51°13.69 2°55.907 2 233 11 101470 92
2001-11-12 08:56:23 51°13.69 2°55.907 2.1 209 11 101470 92
2001-11-12 08:56:28 51°13.69 2°55.906 2.1 205 11 101470 92
2001-11-12 08:56:33 51°13.69 2°55.907 2.6 223 11 101470 92
2001-11-12 08:56:39 51°13.69 2°55.907 2.5 208 11 101470 92
2001-11-12 08:56:43 51°13.69 2°55.907 2.5 208 11 101470 92
2001-11-12 08:56:48 51°13.69 2°55.907 2.3 209 11 101470 92
2001-11-12 08:56:53 51°13.69 2°55.907 2.2 204 11 101470 91
2001-11-12 08:56:58 51°13.69 2°55.907 1.7 193 11 101470 91
2001-11-12 08:57:03 51°13.69 2°55.907 1.3 199 11 101470 91
2001-11-12 08:57:08 51°13.69 2°55.907 1.3 208 11 101470 91
2001-11-12 08:57:13 51°13.69 2°55.907 2 206 11 101470 91
2001-11-12 08:57:19 51°13.69 2°55.907 1.8 206 11 101470 91
2001-11-12 08:57:23 51°13.69 2°55.907 1.6 208 11 101470 91
2001-11-12 08:57:28 51°13.69 2°55.907 2 192 11 101470 91
2001-11-12 08:57:33 51°13.69 2°55.907 1.6 198 11 101470 92
2001-11-12 08:57:38 51°13.69 2°55.907 1.7 219 11 101470 92
2001-11-12 08:57:43 51°13.69 2°55.907 1.8 225 11 101470 91
2001-11-12 08:57:49 51°13.69 2°55.907 1.5 220 11 101470 91
2001-11-12 08:57:53 51°13.69 2°55.907 2.1 214 11 101470 91
2001-11-12 08:57:58 51°13.69 2°55.907 2.3 206 11 101470 91
2001-11-12 08:58:03 51°13.69 2°55.907 2.4 205 11 101470 92
2001-11-12 08:58:08 51°13.69 2°55.907 2.1 223 11 101470 92
2001-11-12 08:58:13 51°13.69 2°55.907 2 219 11 101470 92
2001-11-12 08:58:19 51°13.69 2°55.907 1.9 210 11 101470 92
2001-11-12 08:58:23 51°13.69 2°55.907 1.8 211 11 101470 92
2001-11-12 08:58:28 51°13.69 2°55.907 1.8 197 11 101470 92
2001-11-12 08:58:33 51°13.69 2°55.907 1.8 190 11.1 101470 92
2001-11-12 08:58:38 51°13.69 2°55.907 2 195 11.1 101470 92
2001-11-12 08:58:43 51°13.69 2°55.907 1.3 203 11 101470 92
2001-11-12 08:58:48 51°13.69 2°55.907 1.7 211 11 101470 92
2001-11-12 08:58:53 51°13.69 2°55.907 1.7 220 11.1 101470 91
2001-11-12 08:58:59 51°13.69 2°55.907 1.6 215 11.1 101470 91
2001-11-12 08:59:03 51°13.69 2°55.907 1.9 218 11 101470 91
2001-11-12 08:59:08 51°13.69 2°55.907 2 214 11 101470 91
2001-11-12 08:59:13 51°13.69 2°55.907 2 203 11 101470 91
2001-11-12 08:59:19 51°13.69 2°55.907 2.2 195 11 101470 91
2001-11-12 08:59:23 51°13.69 2°55.907 2.1 183 11.1 101470 91
2001-11-12 08:59:28 51°13.69 2°55.907 1.7 192 11.1 101470 91
2001-11-12 08:59:33 51°13.69 2°55.907 1.5 195 11 101470 91
2001-11-12 08:59:39 51°13.69 2°55.907 1.8 202 11 101470 91
2001-11-12 08:59:43 51°13.69 2°55.907 2 200 11.1 101470 91
2001-11-12 08:59:48 51°13.69 2°55.907 2.1 188 11.1 101470 91
2001-11-12 08:59:53 51°13.69 2°55.907 2.4 186 11 101470 91
2001-11-12 08:59:58 51°13.69 2°55.907 2.6 193 11 101470 91
2001-11-12 09:00:03 51°13.69 2°55.907 2 185 11.1 101470 91
2001-11-12 09:00:09 51°13.69 2°55.907 2.5 190 11.1 101470 91
2001-11-12 09:00:13 51°13.69 2°55.907 2.1 185 11.1 101470 91
2001-11-12 09:00:19 51°13.69 2°55.907 2.3 181 11.1 101470 91
2001-11-12 09:00:23 51°13.69 2°55.907 2 178 11.1 101470 91
2001-11-12 09:00:28 51°13.69 2°55.906 2.4 186 11.1 101470 91
2001-11-12 09:00:32 51°13.69 2°55.906 2.1 186 11.1 101470 91
2001-11-12 09:00:38 51°13.69 2°55.906 1.9 189 11.1 101470 91
2001-11-12 09:00:43 51°13.69 2°55.907 1.4 188 11.1 101470 92
2001-11-12 09:00:49 51°13.69 2°55.907 2.2 196 11.1 101470 92
2001-11-12 09:00:53 51°13.689 2°55.907 2.3 195 11.1 101470 92
2001-11-12 09:00:58 51°13.689 2°55.907 2.5 201 11.1 101470 92
2001-11-12 09:01:03 51°13.689 2°55.907 2.3 181 11.1 101470 92
2001-11-12 09:01:08 51°13.689 2°55.907 3.1 197 11.1 101470 92
2001-11-12 09:01:17 51°13.689 2°55.906 2.1 180 11.1 101470 92
2001-11-12 09:01:22 51°13.689 2°55.906 2.2 183 11.1 101470 92
2001-11-12 09:01:27 51°13.689 2°55.906 1.5 198 11.1 101470 92
2001-11-12 09:01:32 51°13.689 2°55.906 1.2 183 11.1 101470 92
2001-11-12 09:01:37 51°13.689 2°55.907 1.9 199 11.1 101470 92
2001-11-12 09:01:42 51°13.689 2°55.906 2.1 206 11.1 101470 92
2001-11-12 09:01:47 51°13.689 2°55.906 1.8 213 11.1 101470 92
2001-11-12 09:01:52 51°13.689 2°55.906 1.7 199 11.1 101470 92
2001-11-12 09:01:58 51°13.689 2°55.906 2.1 207 11.1 101470 92
2001-11-12 09:02:03 51°13.689 2°55.906 1.6 201 11.1 101470 92
2001-11-12 09:02:07 51°13.689 2°55.906 1.4 164 11.1 101470 92
2001-11-12 09:02:12 51°13.689 2°55.906 1.1 316 11.1 101470 92
2001-11-12 09:02:17 51°13.689 2°55.906 1.7 218 11.1 101470 92
2001-11-12 09:02:22 51°13.689 2°55.906 1.6 217 11.1 101470 92
2001-11-12 09:02:27 51°13.689 2°55.906 1.1 195 11.1 101470 92
2001-11-12 09:02:32 51°13.689 2°55.906 0.9 192 11.1 101470 91
2001-11-12 09:02:36 51°13.689 2°55.906 1.4 203 11.1 101470 91
2001-11-12 09:02:42 51°13.689 2°55.906 1.4 204 11.1 101470 91
2001-11-12 09:02:47 51°13.689 2°55.906 1.7 212 11.1 101470 91
2001-11-12 09:02:52 51°13.689 2°55.906 2.2 202 11.1 101470 91
2001-11-12 09:02:57 51°13.689 2°55.906 2.1 224 11.1 101470 91
2001-11-12 09:03:02 51°13.689 2°55.906 2 223 11.1 101470 91
2001-11-12 09:03:07 51°13.689 2°55.906 2 217 11.1 101470 91
2001-11-12 09:03:12 51°13.689 2°55.906 2.2 220 11.1 101470 91
2001-11-12 09:03:17 51°13.689 2°55.906 1.9 211 11.1 101470 91
2001-11-12 09:03:23 51°13.689 2°55.906 1.6 196 11.1 101470 91
2001-11-12 09:03:27 51°13.689 2°55.906 1.7 199 11.1 101470 91
2001-11-12 09:03:32 51°13.689 2°55.906 1.4 194 11.1 101470 91
2001-11-12 09:03:37 51°13.689 2°55.906 1.4 220 11.1 101470 91
2001-11-12 09:03:43 51°13.689 2°55.906 1.2 204 11.1 101470 91
2001-11-12 09:03:47 51°13.689 2°55.906 1.5 207 11.1 101470 91
2001-11-12 09:03:53 51°13.689 2°55.907 1.6 202 11.1 101470 91
2001-11-12 09:03:56 51°13.688 2°55.907 1.5 203 11.1 101470 91
2001-11-12 09:04:02 51°13.688 2°55.906 2 192 11.1 101470 91
2001-11-12 09:04:07 51°13.688 2°55.906 2.2 185 11.1 101470 91
2001-11-12 09:04:12 51°13.688 2°55.906 2.1 193 11.1 101470 91
2001-11-12 09:04:17 51°13.688 2°55.906 2.1 205 11.1 101470 91
2001-11-12 09:04:22 51°13.688 2°55.906 2.1 201 11.1 101470 91
2001-11-12 09:04:27 51°13.688 2°55.906 2 188 11.1 101470 91
2001-11-12 09:04:32 51°13.688 2°55.906 1.9 195 11.1 101470 91
2001-11-12 09:04:38 51°13.688 2°55.906 2.1 205 11.1 101470 91
2001-11-12 09:04:43 51°13.688 2°55.906 2.2 215 11.1 101470 91
2001-11-12 09:04:47 51°13.688 2°55.906 2.5 209 11.1 101470 91
2001-11-12 09:04:52 51°13.688 2°55.906 2.1 127 11.1 101470 91
2001-11-12 09:04:57 51°13.688 2°55.906 2.2 209 11.1 101470 91
2001-11-12 09:05:02 51°13.688 2°55.906 2.1 175 11.1 101470 91
2001-11-12 09:05:07 51°13.687 2°55.906 2.3 159 11.1 101470 91
2001-11-12 09:05:12 51°13.687 2°55.905 2.5 153 11.1 101460 91
2001-11-12 09:05:17 51°13.687 2°55.905 3.4 179 11.1 101460 91
2001-11-12 09:05:22 51°13.687 2°55.905 2.6 163 11.1 101470 91
2001-11-12 09:05:27 51°13.687 2°55.905 2.6 169 11.1 101470 91
2001-11-12 09:05:32 51°13.687 2°55.905 3.1 177 11.1 101470 91
2001-11-12 09:05:36 51°13.687 2°55.905 2.6 178 11.1 101470 91
2001-11-12 09:05:43 51°13.686 2°55.905 2.6 171 11.1 101460 92
2001-11-12 09:05:48 51°13.686 2°55.905 2.3 176 11.1 101460 92
2001-11-12 09:05:52 51°13.686 2°55.905 2.3 177 11.1 101470 92
2001-11-12 09:05:57 51°13.686 2°55.905 2.1 184 11.1 101470 92
2001-11-12 09:06:02 51°13.686 2°55.905 1.4 186 11.1 101470 92
2001-11-12 09:06:07 51°13.686 2°55.905 2.2 178 11.1 101470 92
2001-11-12 09:06:12 51°13.685 2°55.905 2 177 11.2 101470 92
2001-11-12 09:06:17 51°13.685 2°55.904 1.7 175 11.2 101470 92
2001-11-12 09:06:23 51°13.686 2°55.903 1.9 166 11.2 101470 92
2001-11-12 09:06:27 51°13.686 2°55.902 2.1 183 11.2 101470 92
2001-11-12 09:06:32 51°13.686 2°55.9 2.9 151 11.1 101460 91
2001-11-12 09:06:36 51°13.686 2°55.899 3.5 168 11.1 101460 91
2001-11-12 09:06:42 51°13.686 2°55.895 3.6 172 11.2 101460 92
2001-11-12 09:06:47 51°13.687 2°55.891 3.1 153 11.2 101460 92
2001-11-12 09:06:53 51°13.687 2°55.885 3.6 163 11.2 101460 92
2001-11-12 09:06:59 51°13.687 2°55.879 3.1 159 11.2 101460 92
2001-11-12 09:07:03 51°13.687 2°55.875 3.2 169 11.2 101460 92
2001-11-12 09:07:08 51°13.687 2°55.868 3.6 169 11.2 101460 92
2001-11-12 09:07:14 51°13.687 2°55.86 3.6 160 11.2 101460 92
2001-11-12 09:07:19 51°13.687 2°55.854 2.4 157 11.2 101460 92
2001-11-12 09:07:24 51°13.686 2°55.847 2.5 143 11.2 101460 91
2001-11-12 09:07:29 51°13.686 2°55.841 3.2 159 11.2 101460 91
2001-11-12 09:07:34 51°13.685 2°55.836 2.8 154 11.2 101460 92
2001-11-12 09:07:39 51°13.685 2°55.83 2.8 147 11.2 101460 92
2001-11-12 09:07:44 51°13.684 2°55.824 1.8 150 11.2 101460 92
2001-11-12 09:07:48 51°13.684 2°55.82 3.6 136 11.2 101460 92
2001-11-12 09:07:53 51°13.683 2°55.815 3.8 143 11.2 101460 92
2001-11-12 09:07:58 51°13.683 2°55.81 4.3 151 11.2 101460 92
2001-11-12 09:08:03 51°13.682 2°55.805 4.4 147 11.3 101460 92
2001-11-12 09:08:08 51°13.682 2°55.8 4.2 138 11.3 101460 92
2001-11-12 09:08:13 51°13.681 2°55.796 5.6 117 11.3 101460 92
2001-11-12 09:08:18 51°13.68 2°55.791 5.2 131 11.3 101460 92
2001-11-12 09:08:23 51°13.679 2°55.787 3.7 136 11.3 101460 92
2001-11-12 09:08:28 51°13.678 2°55.783 3.9 150 11.3 101460 92
2001-11-12 09:08:33 51°13.677 2°55.779 2.9 171 11.3 101470 92
2001-11-12 09:08:37 51°13.677 2°55.776 3.9 149 11.3 101470 92
2001-11-12 09:08:43 51°13.676 2°55.771 3.1 155 11.3 101460 92
2001-11-12 09:08:48 51°13.675 2°55.768 3.1 133 11.3 101460 92
2001-11-12 09:08:53 51°13.674 2°55.764 3 148 11.3 101460 92
2001-11-12 09:08:58 51°13.673 2°55.761 3 131 11.3 101460 92
2001-11-12 09:09:03 51°13.672 2°55.758 2.5 133 11.3 101460 92
2001-11-12 09:09:08 51°13.672 2°55.757 2.2 116 11.3 101460 92
2001-11-12 09:09:13 51°13.672 2°55.757 1.6 126 11.3 101460 92
2001-11-12 09:09:19 51°13.674 2°55.758 0.7 104 11.3 101460 92
2001-11-12 09:09:23 51°13.675 2°55.759 0.8 111 11.3 101460 92
2001-11-12 09:09:28 51°13.676 2°55.759 1.2 104 11.3 101460 92
2001-11-12 09:09:33 51°13.677 2°55.76 0.7 109 11.3 101460 92
2001-11-12 09:09:37 51°13.678 2°55.761 0.5 93 11.3 101460 92
2001-11-12 09:09:43 51°13.68 2°55.761 0.6 97 11.3 101460 91
2001-11-12 09:09:48 51°13.683 2°55.762 0.8 69 11.3 101460 91
2001-11-12 09:09:53 51°13.686 2°55.762 0.9 25 11.3 101460 91
2001-11-12 09:09:58 51°13.689 2°55.762 0.7 9 11.3 101460 91
2001-11-12 09:10:03 51°13.692 2°55.761 2.6 27 11.3 101460 91
2001-11-12 09:10:08 51°13.695 2°55.76 1.2 19 11.3 101460 91
2001-11-12 09:10:13 51°13.698 2°55.759 1.3 320 11.3 101460 91
2001-11-12 09:10:19 51°13.699 2°55.759 1.1 346 11.3 101460 91
2001-11-12 09:10:23 51°13.699 2°55.758 0.4 103 11.3 101460 91
2001-11-12 09:10:28 51°13.7 2°55.758 1.6 74 11.3 101460 91
2001-11-12 09:10:33 51°13.7 2°55.758 2.1 84 11.3 101460 91
2001-11-12 09:10:38 51°13.7 2°55.758 1.8 87 11.3 101460 91
2001-11-12 09:10:43 51°13.701 2°55.757 1.3 68 11.3 101460 91
2001-11-12 09:10:48 51°13.701 2°55.757 1.3 331 11.3 101460 91
2001-11-12 09:10:53 51°13.701 2°55.757 1.5 333 11.3 101460 91
2001-11-12 09:10:59 51°13.702 2°55.756 1.6 301 11.3 101460 91
2001-11-12 09:11:03 51°13.702 2°55.756 1.2 239 11.3 101460 91
2001-11-12 09:11:08 51°13.702 2°55.755 0.6 223 11.3 101460 91
2001-11-12 09:11:13 51°13.703 2°55.755 0.6 42 11.3 101460 91
2001-11-12 09:11:17 51°13.703 2°55.755 1.2 86 11.3 101460 91
2001-11-12 09:11:23 51°13.703 2°55.754 1.9 75 11.3 101460 91
2001-11-12 09:11:28 51°13.704 2°55.754 0.6 78 11.3 101460 91
2001-11-12 09:11:33 51°13.704 2°55.753 1.9 90 11.3 101460 91
2001-11-12 09:11:38 51°13.704 2°55.753 0.9 118 11.3 101460 91
2001-11-12 09:11:43 51°13.704 2°55.752 1.5 75 11.3 101460 91
2001-11-12 09:11:48 51°13.705 2°55.752 0.7 49 11.3 101460 91
2001-11-12 09:11:53 51°13.705 2°55.752 0.3 44 11.3 101460 91
2001-11-12 09:11:58 51°13.705 2°55.751 0.9 28 11.3 101460 91
2001-11-12 09:12:03 51°13.706 2°55.751 1 50 11.3 101460 91
2001-11-12 09:12:08 51°13.706 2°55.751 1 347 11.3 101460 91
2001-11-12 09:12:13 51°13.706 2°55.75 0.9 209 11.3 101460 91
2001-11-12 09:12:18 51°13.707 2°55.75 1.3 332 11.3 101460 91
2001-11-12 09:12:23 51°13.707 2°55.749 0.8 27 11.3 101460 91
2001-11-12 09:12:28 51°13.707 2°55.749 1.7 301 11.3 101460 91
2001-11-12 09:12:33 51°13.707 2°55.748 1.7 266 11.3 101460 91
2001-11-12 09:12:38 51°13.708 2°55.748 1.3 242 11.3 101460 91
2001-11-12 09:12:43 51°13.708 2°55.747 0.9 238 11.3 101460 91
2001-11-12 09:12:48 51°13.708 2°55.746 1.1 313 11.3 101460 91
2001-11-12 09:12:53 51°13.709 2°55.746 0.8 243 11.3 101460 91
2001-11-12 09:12:58 51°13.709 2°55.745 0.5 240 11.3 101460 91
2001-11-12 09:13:03 51°13.71 2°55.745 0.5 59 11.3 101460 91
2001-11-12 09:13:08 51°13.71 2°55.744 1.6 10 11.3 101460 91
2001-11-12 09:13:13 51°13.711 2°55.743 1.6 3 11.3 101460 91
2001-11-12 09:13:18 51°13.711 2°55.742 1.3 45 11.3 101460 91
2001-11-12 09:13:23 51°13.712 2°55.741 1.6 36 11.3 101460 91
2001-11-12 09:13:28 51°13.712 2°55.74 1.9 29 11.3 101460 91
2001-11-12 09:13:33 51°13.713 2°55.739 1.7 32 11.3 101460 91
2001-11-12 09:13:38 51°13.714 2°55.737 1.6 25 11.3 101460 91
2001-11-12 09:13:43 51°13.715 2°55.736 1.2 30 11.3 101460 91
2001-11-12 09:13:48 51°13.716 2°55.734 0.8 307 11.3 101460 91
2001-11-12 09:13:53 51°13.718 2°55.732 0.6 219 11.4 101460 91
2001-11-12 09:13:58 51°13.719 2°55.73 0.6 226 11.4 101460 91
2001-11-12 09:14:03 51°13.721 2°55.728 0.5 233 11.3 101460 91
2001-11-12 09:14:08 51°13.724 2°55.725 1.4 325 11.3 101460 91
2001-11-12 09:14:13 51°13.726 2°55.722 2.7 19 11.3 101460 91
2001-11-12 09:14:18 51°13.73 2°55.718 1.9 41 11.3 101460 91
2001-11-12 09:14:23 51°13.734 2°55.714 1.4 22 11.4 101460 91
2001-11-12 09:14:28 51°13.739 2°55.709 2.6 34 11.4 101460 91
2001-11-12 09:14:33 51°13.745 2°55.705 3.2 22 11.4 101460 91
2001-11-12 09:14:38 51°13.751 2°55.699 4.5 37 11.4 101460 91
2001-11-12 09:14:43 51°13.758 2°55.694 3.1 19 11.4 101460 91
2001-11-12 09:14:48 51°13.765 2°55.687 3.6 7 11.4 101460 91
2001-11-12 09:14:53 51°13.773 2°55.681 4.2 345 11.4 101460 91
2001-11-12 09:14:57 51°13.779 2°55.675 5.6 18 11.4 101460 91
2001-11-12 09:15:03 51°13.79 2°55.667 5 13 11.4 101450 91
2001-11-12 09:15:08 51°13.799 2°55.659 4.5 345 11.4 101450 91
2001-11-12 09:15:13 51°13.809 2°55.652 4.9 11 11.4 101450 91
2001-11-12 09:15:18 51°13.819 2°55.644 5.8 15 11.4 101450 91
2001-11-12 09:15:23 51°13.83 2°55.636 4.6 350 11.4 101460 91
2001-11-12 09:15:28 51°13.84 2°55.629 5 12 11.4 101460 91
2001-11-12 09:15:33 51°13.851 2°55.62 4.5 310 11.4 101450 91
2001-11-12 09:15:37 51°13.86 2°55.614 7 4 11.4 101450 91
2001-11-12 09:15:43 51°13.873 2°55.604 6.1 27 11.4 101450 91
2001-11-12 09:15:48 51°13.885 2°55.597 4.8 16 11.4 101450 91
2001-11-12 09:15:53 51°13.896 2°55.589 4.2 11 11.4 101450 91
2001-11-12 09:15:59 51°13.909 2°55.58 3.1 24 11.4 101450 91
2001-11-12 09:16:03 51°13.918 2°55.573 6 27 11.4 101450 91
2001-11-12 09:16:08 51°13.929 2°55.566 7 360 11.4 101450 91
2001-11-12 09:16:13 51°13.94 2°55.558 7.1 16 11.4 101450 91
2001-11-12 09:16:17 51°13.949 2°55.552 7.4 9 11.4 101450 91
2001-11-12 09:16:23 51°13.962 2°55.543 8 18 11.4 101450 91
2001-11-12 09:16:28 51°13.972 2°55.535 7.2 25 11.4 101450 91
2001-11-12 09:16:33 51°13.983 2°55.527 6 350 11.4 101450 91
2001-11-12 09:16:38 51°13.994 2°55.519 7.2 9 11.4 101450 91
2001-11-12 09:16:43 51°14.005 2°55.511 6 358 11.4 101450 91
2001-11-12 09:16:48 51°14.015 2°55.503 7.1 31 11.4 101450 91
2001-11-12 09:16:53 51°14.026 2°55.495 5.9 11 11.4 101450 91
2001-11-12 09:16:58 51°14.037 2°55.487 4.7 17 11.4 101450 91
2001-11-12 09:17:03 51°14.047 2°55.479 5.5 10 11.4 101450 91
2001-11-12 09:17:08 51°14.058 2°55.471 7.5 5 11.4 101450 91
2001-11-12 09:17:13 51°14.068 2°55.463 10.9 360 11.4 101450 91
2001-11-12 09:17:17 51°14.077 2°55.457 8.1 18 11.4 101450 91
2001-11-12 09:17:23 51°14.089 2°55.447 7.2 345 11.4 101450 91
2001-11-12 09:17:28 51°14.1 2°55.439 6 10 11.4 101450 91
2001-11-12 09:17:33 51°14.11 2°55.43 8.2 8 11.4 101450 91
2001-11-12 09:17:38 51°14.121 2°55.422 9.2 12 11.4 101450 91
2001-11-12 09:17:43 51°14.13 2°55.412 8.6 23 11.4 101450 91
2001-11-12 09:17:48 51°14.141 2°55.403 6 25 11.4 101450 91
2001-11-12 09:17:53 51°14.15 2°55.394 7.8 26 11.4 101450 91
2001-11-12 09:17:58 51°14.16 2°55.385 6.4 19 11.4 101450 91
2001-11-12 09:18:03 51°14.17 2°55.375 7.4 15 11.4 101440 91
2001-11-12 09:18:08 51°14.18 2°55.364 6.8 18 11.4 101440 91
2001-11-12 09:18:13 51°14.189 2°55.354 9.2 15 11.4 101450 91
2001-11-12 09:18:18 51°14.199 2°55.343 7.2 26 11.4 101450 91
2001-11-12 09:18:23 51°14.208 2°55.332 8.3 21 11.4 101440 91
2001-11-12 09:18:28 51°14.217 2°55.321 10 16 11.4 101440 91
2001-11-12 09:18:33 51°14.226 2°55.309 9.8 19 11.4 101450 91
2001-11-12 09:18:38 51°14.235 2°55.297 8.9 22 11.4 101450 91
2001-11-12 09:18:43 51°14.243 2°55.285 10.2 18 11.4 101440 91
2001-11-12 09:18:48 51°14.252 2°55.272 11 16 11.4 101440 91
2001-11-12 09:18:53 51°14.26 2°55.259 11.2 17 11.4 101440 90
2001-11-12 09:18:58 51°14.268 2°55.246 9.7 18 11.4 101440 90
2001-11-12 09:19:03 51°14.276 2°55.233 10.9 19 11.4 101440 90
2001-11-12 09:19:08 51°14.285 2°55.219 11.7 14 11.4 101440 90
2001-11-12 09:19:12 51°14.291 2°55.208 10.3 18 11.4 101440 90
2001-11-12 09:19:17 51°14.299 2°55.194 11.4 18 11.4 101440 90
2001-11-12 09:19:23 51°14.308 2°55.178 11.4 18 11.4 101440 90
2001-11-12 09:19:28 51°14.316 2°55.164 8.8 359 11.4 101440 90
2001-11-12 09:19:33 51°14.323 2°55.149 7.6 3 11.4 101440 90
2001-11-12 09:19:38 51°14.331 2°55.135 8.1 35 11.4 101440 90
2001-11-12 09:19:43 51°14.338 2°55.12 10.5 22 11.4 101450 90
2001-11-12 09:19:48 51°14.345 2°55.106 10.3 20 11.4 101450 90
2001-11-12 09:19:53 51°14.352 2°55.091 11.1 18 11.4 101440 90
2001-11-12 09:19:57 51°14.358 2°55.079 11.9 20 11.4 101440 90
2001-11-12 09:20:03 51°14.367 2°55.062 11.8 17 11.4 101440 90
2001-11-12 09:20:08 51°14.375 2°55.048 11.1 19 11.4 101440 90
2001-11-12 09:20:13 51°14.382 2°55.034 10.9 24 11.4 101440 90
2001-11-12 09:20:18 51°14.391 2°55.022 10.2 24 11.4 101440 90
2001-11-12 09:20:23 51°14.401 2°55.011 8.8 19 11.4 101440 90
2001-11-12 09:20:27 51°14.409 2°55.003 8.2 25 11.4 101440 90
2001-11-12 09:20:32 51°14.42 2°54.994 9 19 11.4 101430 90
2001-11-12 09:20:37 51°14.432 2°54.987 8.1 24 11.4 101430 90
2001-11-12 09:20:42 51°14.443 2°54.979 9.5 21 11.4 101430 90
2001-11-12 09:20:48 51°14.458 2°54.97 10.6 18 11.4 101430 90
2001-11-12 09:20:53 51°14.47 2°54.962 10 21 11.4 101450 90
2001-11-12 09:20:57 51°14.479 2°54.955 9.8 16 11.4 101450 90
2001-11-12 09:21:03 51°14.494 2°54.945 10.3 14 11.3 101440 90
2001-11-12 09:21:08 51°14.506 2°54.935 10.4 10 11.3 101440 90
2001-11-12 09:21:13 51°14.518 2°54.925 10.4 13 11.4 101440 90
2001-11-12 09:21:17 51°14.529 2°54.917 10.8 360 11.4 101440 90
2001-11-12 09:21:23 51°14.544 2°54.904 9.9 13 11.4 101440 90
2001-11-12 09:21:28 51°14.556 2°54.893 10.9 5 11.4 101440 90
2001-11-12 09:21:32 51°14.567 2°54.884 10.7 6 11.3 101440 91
2001-11-12 09:21:37 51°14.579 2°54.872 10.9 3 11.3 101440 91
2001-11-12 09:21:43 51°14.595 2°54.857 9.9 359 11.4 101430 91
2001-11-12 09:21:48 51°14.608 2°54.844 12.1 2 11.4 101430 91
2001-11-12 09:21:53 51°14.622 2°54.832 12.1 9 11.4 101440 91
2001-11-12 09:21:58 51°14.635 2°54.82 12.1 5 11.4 101440 91
2001-11-12 09:22:03 51°14.649 2°54.807 12.2 3 11.4 101440 91
2001-11-12 09:22:08 51°14.662 2°54.795 12.6 1 11.4 101440 91
2001-11-12 09:22:12 51°14.673 2°54.785 12.6 356 11.4 101430 91
2001-11-12 09:22:17 51°14.686 2°54.771 12.4 2 11.4 101430 91
2001-11-12 09:22:23 51°14.702 2°54.755 12.5 1 11.4 101430 91
2001-11-12 09:22:28 51°14.714 2°54.742 12.6 358 11.4 101430 91
2001-11-12 09:22:33 51°14.728 2°54.728 12.4 7 11.4 101430 91
2001-11-12 09:22:38 51°14.741 2°54.715 12.5 2 11.4 101430 91
2001-11-12 09:22:43 51°14.754 2°54.702 13 8 11.4 101440 91
2001-11-12 09:22:48 51°14.769 2°54.689 13 6 11.4 101440 91
2001-11-12 09:22:53 51°14.783 2°54.678 13.3 8 11.4 101430 91
2001-11-12 09:22:57 51°14.795 2°54.668 12.9 5 11.4 101430 91
2001-11-12 09:23:03 51°14.812 2°54.653 12.7 5 11.4 101430 91
2001-11-12 09:23:08 51°14.827 2°54.641 12.8 4 11.4 101430 91
2001-11-12 09:23:13 51°14.842 2°54.629 12.7 5 11.4 101430 91
2001-11-12 09:23:18 51°14.857 2°54.617 13.4 359 11.4 101430 91
2001-11-12 09:23:23 51°14.871 2°54.604 13.9 359 11.4 101430 91
2001-11-12 09:23:28 51°14.886 2°54.591 12.5   11.4 101430 91
2001-11-12 09:23:32 51°14.897 2°54.58 13.8 4 11.4 101430 91
2001-11-12 09:23:37 51°14.912 2°54.566 13.8 4 11.4 101430 91
2001-11-12 09:23:43 51°14.928 2°54.549 13.2 359 11.4 101430 91
2001-11-12 09:23:48 51°14.943 2°54.535 13.3 360 11.4 101430 91
2001-11-12 09:23:53 51°14.957 2°54.522 12.8 4 11.4 101440 91
2001-11-12 09:23:57 51°14.968 2°54.511 12.8   11.4 101440 91
2001-11-12 09:24:03 51°14.986 2°54.495 13 2 11.4 101430 91
2001-11-12 09:24:08 51°15 2°54.483 13.2 9 11.4 101430 91
2001-11-12 09:24:13 51°15.015 2°54.469 13.3 2 11.4 101430 91
2001-11-12 09:24:17 51°15.027 2°54.459 13.5 4 11.4 101430 91
2001-11-12 09:24:23 51°15.044 2°54.443 14 4 11.4 101430 91
2001-11-12 09:24:28 51°15.059 2°54.429 13.6 1 11.4 101430 91
2001-11-12 09:24:33 51°15.074 2°54.415 13.2 1 11.4 101430 90
2001-11-12 09:24:38 51°15.089 2°54.401 13 8 11.4 101430 90
2001-11-12 09:24:43 51°15.104 2°54.388 14 9 11.4 101430 90
2001-11-12 09:24:47 51°15.117 2°54.378 14.5 15 11.4 101430 90
2001-11-12 09:24:52 51°15.133 2°54.368 13.5 15 11.4 101430 90
2001-11-12 09:24:58 51°15.153 2°54.359 14 17 11.4 101430 90
2001-11-12 09:25:03 51°15.171 2°54.352 12.9 11 11.4 101430 90
2001-11-12 09:25:08 51°15.188 2°54.345 13.5 19 11.4 101430 90
2001-11-12 09:25:13 51°15.205 2°54.338 13.1 14 11.4 101430 90
2001-11-12 09:25:17 51°15.219 2°54.332 13.1 13 11.4 101430 90
2001-11-12 09:25:23 51°15.24 2°54.323 13.6 15 11.4 101430 90
2001-11-12 09:25:28 51°15.258 2°54.315 13.3 16 11.4 101430 90
2001-11-12 09:25:33 51°15.275 2°54.308 13.6 13 11.4 101440 90
2001-11-12 09:25:37 51°15.289 2°54.302 13.2 14 11.4 101440 90
2001-11-12 09:25:43 51°15.311 2°54.294 13.6 14 11.4 101430 90
2001-11-12 09:25:48 51°15.329 2°54.286 13.5 17 11.4 101430 90
2001-11-12 09:25:53 51°15.347 2°54.279 13.1 12 11.4 101420 90
2001-11-12 09:25:57 51°15.361 2°54.272 12.5 10 11.4 101420 90
2001-11-12 09:26:03 51°15.383 2°54.262 13.2 16 11.4 101430 90
2001-11-12 09:26:08 51°15.401 2°54.254 13.4 10 11.4 101430 90
2001-11-12 09:26:12 51°15.416 2°54.248 14.2 15 11.4 101430 90
2001-11-12 09:26:17 51°15.434 2°54.24 13.1 14 11.4 101430 90
2001-11-12 09:26:23 51°15.455 2°54.231 12.6 18 11.4 101430 90
2001-11-12 09:26:28 51°15.47 2°54.224 11.9 15 11.4 101430 90
2001-11-12 09:26:33 51°15.484 2°54.216 11.7 20 11.5 101430 90
2001-11-12 09:26:38 51°15.497 2°54.21 11.5 18 11.5 101430 90
2001-11-12 09:26:43 51°15.509 2°54.204 10.7 17 11.5 101440 90
2001-11-12 09:26:47 51°15.518 2°54.199 11.4 18 11.5 101440 90
2001-11-12 09:26:53 51°15.53 2°54.191 10.6 15 11.5 101440 90
2001-11-12 09:26:58 51°15.539 2°54.185 11.5 16 11.5 101440 90
2001-11-12 09:27:03 51°15.548 2°54.179 10 19 11.5 101440 90
2001-11-12 09:27:08 51°15.556 2°54.173 10.1 14 11.5 101440 90
2001-11-12 09:27:13 51°15.564 2°54.168 9.5 11 11.5 101430 90
2001-11-12 09:27:18 51°15.571 2°54.162 9.6 14 11.5 101430 90
2001-11-12 09:27:23 51°15.578 2°54.157 8.7 11 11.5 101440 90
2001-11-12 09:27:28 51°15.584 2°54.152 9.7 10 11.5 101440 90
2001-11-12 09:27:33 51°15.59 2°54.147 9.9 11 11.5 101440 90
2001-11-12 09:27:38 51°15.597 2°54.142 9.8 10 11.5 101440 90
2001-11-12 09:27:43 51°15.603 2°54.137 11.3 18 11.5 101440 90
2001-11-12 09:27:48 51°15.61 2°54.13 11 10 11.5 101440 90
2001-11-12 09:27:53 51°15.618 2°54.122 11.1 10 11.5 101430 90
2001-11-12 09:27:58 51°15.627 2°54.113 11.1 3 11.5 101430 90
2001-11-12 09:28:03 51°15.636 2°54.103 11.3 6 11.5 101430 90
2001-11-12 09:28:08 51°15.645 2°54.091 11.8 3 11.5 101430 90
2001-11-12 09:28:13 51°15.656 2°54.078 12.8 357 11.5 101430 89
2001-11-12 09:28:17 51°15.664 2°54.066 12 3 11.5 101430 89
2001-11-12 09:28:23 51°15.678 2°54.048 12.4 2 11.5 101430 89
2001-11-12 09:28:28 51°15.691 2°54.034 13.7 8 11.5 101430 89
2001-11-12 09:28:33 51°15.705 2°54.02 12.9 358 11.5 101430 89
2001-11-12 09:28:37 51°15.716 2°54.008 13.3 360 11.5 101430 89
2001-11-12 09:28:43 51°15.733 2°53.989 13.7 358 11.5 101430 89
2001-11-12 09:28:48 51°15.747 2°53.973 13.4 360 11.5 101430 89
2001-11-12 09:28:53 51°15.762 2°53.957 14.8 6 11.6 101430 89
2001-11-12 09:28:58 51°15.777 2°53.941 14.4 359 11.6 101430 89
2001-11-12 09:29:03 51°15.792 2°53.925 14.6 2 11.6 101420 89
2001-11-12 09:29:08 51°15.807 2°53.91 14.6 360 11.6 101420 89
2001-11-12 09:29:13 51°15.822 2°53.893 14.8 359 11.5 101430 89
2001-11-12 09:29:17 51°15.834 2°53.88 14.9 357 11.5 101430 89
2001-11-12 09:29:23 51°15.853 2°53.861 14.8 3 11.6 101420 89
2001-11-12 09:29:28 51°15.868 2°53.846 15.7 359 11.6 101420 89
2001-11-12 09:29:33 51°15.884 2°53.83 14.9 357 11.6 101420 89
2001-11-12 09:29:37 51°15.896 2°53.817 14.7 358 11.6 101420 89
2001-11-12 09:29:42 51°15.911 2°53.799 15.2   11.6 101420 89
2001-11-12 09:29:48 51°15.929 2°53.779 14.3 354 11.6 101420 89
2001-11-12 09:29:53 51°15.944 2°53.763 13.8 357 11.6 101420 89
2001-11-12 09:29:58 51°15.959 2°53.747 14.5 4 11.6 101420 89
2001-11-12 09:30:03 51°15.975 2°53.732 13.8 2 11.6 101430 89
2001-11-12 09:30:08 51°15.991 2°53.717 13.9 1 11.6 101430 89
2001-11-12 09:30:13 51°16.007 2°53.703 13.9 3 11.6 101430 89
2001-11-12 09:30:18 51°16.024 2°53.689 15.5 3 11.6 101430 89
2001-11-12 09:30:22 51°16.037 2°53.677 15.3 360 11.6 101430 89
2001-11-12 09:30:28 51°16.056 2°53.66 14.6 5 11.6 101430 89
2001-11-12 09:30:33 51°16.072 2°53.645 14.3 2 11.6 101430 89
2001-11-12 09:30:38 51°16.087 2°53.63 15 1 11.6 101430 89
2001-11-12 09:30:43 51°16.103 2°53.614 15.2 2 11.6 101430 89
2001-11-12 09:30:48 51°16.119 2°53.599 14.4 360 11.6 101430 89
2001-11-12 09:30:53 51°16.134 2°53.583 15.3 8 11.6 101430 89
2001-11-12 09:30:58 51°16.15 2°53.568 15.5 3 11.6 101430 89
2001-11-12 09:31:03 51°16.166 2°53.553 15.1 5 11.6 101420 89
2001-11-12 09:31:08 51°16.182 2°53.537 14.6 357 11.6 101420 89
2001-11-12 09:31:13 51°16.197 2°53.522 14.8 7 11.6 101430 89
2001-11-12 09:31:17 51°16.21 2°53.511 15.3 6 11.6 101430 89
2001-11-12 09:31:23 51°16.229 2°53.493 14.7 1 11.6 101420 88
2001-11-12 09:31:28 51°16.245 2°53.478 14.4 5 11.6 101420 88
2001-11-12 09:31:32 51°16.257 2°53.466 14.2 358 11.6 101430 88
2001-11-12 09:31:38 51°16.276 2°53.447 14.8 7 11.6 101430 88
2001-11-12 09:31:43 51°16.292 2°53.432 15.2 357 11.6 101420 88
2001-11-12 09:31:48 51°16.309 2°53.418 15.8 360 11.6 101420 88
2001-11-12 09:31:53 51°16.325 2°53.403 15.2 3 11.6 101420 88
2001-11-12 09:31:58 51°16.341 2°53.389 15.1 8 11.6 101420 88
2001-11-12 09:32:03 51°16.357 2°53.374 13.7 355 11.6 101420 88
2001-11-12 09:32:08 51°16.372 2°53.359 15.2 3 11.6 101420 88
2001-11-12 09:32:13 51°16.388 2°53.342 14.4 357 11.6 101420 88
2001-11-12 09:32:18 51°16.403 2°53.326 15.1 2 11.6 101420 88
2001-11-12 09:32:23 51°16.418 2°53.31 15.9 1 11.6 101430 88
2001-11-12 09:32:28 51°16.434 2°53.295 15 2 11.6 101430 88
2001-11-12 09:32:32 51°16.446 2°53.282 15 4 11.6 101420 88
2001-11-12 09:32:37 51°16.462 2°53.267 15 10 11.6 101420 88
2001-11-12 09:32:43 51°16.481 2°53.249 15.1 1 11.7 101410 88
2001-11-12 09:32:48 51°16.497 2°53.234 14.7 8 11.7 101410 88
2001-11-12 09:32:53 51°16.512 2°53.219 13.9 359 11.7 101410 88
2001-11-12 09:32:58 51°16.529 2°53.204 14.9 4 11.7 101410 88
2001-11-12 09:33:03 51°16.545 2°53.189 15.5 6 11.7 101420 88
2001-11-12 09:33:08 51°16.561 2°53.174 16.4 4 11.7 101420 88
2001-11-12 09:33:13 51°16.577 2°53.16 16.4 3 11.7 101420 88
2001-11-12 09:33:17 51°16.59 2°53.148 15.9 8 11.7 101420 88
2001-11-12 09:33:23 51°16.61 2°53.131 16.3 4 11.7 101420 88
2001-11-12 09:33:28 51°16.626 2°53.117 16.8 11 11.7 101420 88
2001-11-12 09:33:33 51°16.642 2°53.102 15.5 5 11.7 101420 88
2001-11-12 09:33:38 51°16.659 2°53.088 14.9 1 11.7 101420 88
2001-11-12 09:33:42 51°16.672 2°53.077 14.9 2 11.7 101410 88
2001-11-12 09:33:48 51°16.692 2°53.06 14.5 6 11.7 101410 88
2001-11-12 09:33:53 51°16.708 2°53.045 14.7 1 11.7 101410 88
2001-11-12 09:33:58 51°16.724 2°53.03 13.8 3 11.7 101410 88
2001-11-12 09:34:03 51°16.74 2°53.015 14.6 5 11.7 101410 88
2001-11-12 09:34:08 51°16.756 2°53.001 14.7 6 11.7 101410 88
2001-11-12 09:34:12 51°16.769 2°52.989 13.6 3 11.7 101410 88
2001-11-12 09:34:17 51°16.785 2°52.974 14.6 3 11.7 101410 88
2001-11-12 09:34:23 51°16.804 2°52.956 15.2 7 11.7 101420 88
2001-11-12 09:34:28 51°16.819 2°52.94 14.6 1 11.7 101420 88
2001-11-12 09:34:33 51°16.835 2°52.924 15.3 1 11.7 101420 88
2001-11-12 09:34:38 51°16.85 2°52.908 15 359 11.7 101420 88
2001-11-12 09:34:43 51°16.865 2°52.891 15.3 7 11.7 101420 88
2001-11-12 09:34:48 51°16.88 2°52.874 14.8 357 11.7 101420 88
2001-11-12 09:34:52 51°16.893 2°52.861 14.9 4 11.7 101410 88
2001-11-12 09:34:58 51°16.911 2°52.842 15.2 4 11.7 101410 88
2001-11-12 09:35:03 51°16.927 2°52.826 15.4 4 11.8 101410 88
2001-11-12 09:35:08 51°16.943 2°52.81 15.6   11.8 101410 88
2001-11-12 09:35:13 51°16.958 2°52.793 16 3 11.7 101420 88
2001-11-12 09:35:18 51°16.974 2°52.776 15.9 5 11.7 101420 88
2001-11-12 09:35:23 51°16.989 2°52.76 14.2 356 11.8 101410 88
2001-11-12 09:35:28 51°17.005 2°52.743 15.4 3 11.8 101410 88
2001-11-12 09:35:32 51°17.018 2°52.731 14.7 2 11.7 101420 88
2001-11-12 09:35:37 51°17.033 2°52.714 15.5 359 11.7 101420 88
2001-11-12 09:35:43 51°17.052 2°52.694 15.8 5 11.8 101410 88
2001-11-12 09:35:48 51°17.067 2°52.677 15.3 357 11.8 101410 88
2001-11-12 09:35:53 51°17.082 2°52.659 16.5 357 11.8 101410 88
2001-11-12 09:35:57 51°17.094 2°52.645 15.3 1 11.8 101410 88
2001-11-12 09:36:03 51°17.111 2°52.622 15.3 3 11.8 101410 88
2001-11-12 09:36:08 51°17.125 2°52.603 14.7 2 11.8 101410 88
2001-11-12 09:36:13 51°17.139 2°52.584 15.5 1 11.8 101410 88
2001-11-12 09:36:17 51°17.151 2°52.569 14.7 358 11.8 101410 88
2001-11-12 09:36:23 51°17.168 2°52.545 15.7 1 11.8 101410 88
2001-11-12 09:36:28 51°17.182 2°52.527 14.8 1 11.8 101410 88
2001-11-12 09:36:33 51°17.196 2°52.508 15.7 1 11.8 101420 88
2001-11-12 09:36:37 51°17.208 2°52.493 15.1 2 11.8 101420 88
2001-11-12 09:36:43 51°17.225 2°52.471 16.6 356 11.8 101420 88
2001-11-12 09:36:48 51°17.24 2°52.453 16.6 5 11.8 101420 88
2001-11-12 09:36:53 51°17.255 2°52.435 16.4 5 11.8 101420 87
2001-11-12 09:36:57 51°17.267 2°52.421 16.1 2 11.8 101420 87
2001-11-12 09:37:03 51°17.285 2°52.4 15.8 5 11.8 101410 87
2001-11-12 09:37:08 51°17.3 2°52.383 16.1 9 11.8 101410 87
2001-11-12 09:37:13 51°17.316 2°52.367 15.3 2 11.7 101410 87
2001-11-12 09:37:18 51°17.332 2°52.351 16.5 11 11.7 101410 87
2001-11-12 09:37:23 51°17.347 2°52.335 15.8 5 11.7 101410 87
2001-11-12 09:37:28 51°17.363 2°52.319 15.3 10 11.7 101410 87
2001-11-12 09:37:32 51°17.376 2°52.306 16.5 7 11.7 101410 87
2001-11-12 09:37:38 51°17.395 2°52.287 16 3 11.7 101410 87
2001-11-12 09:37:43 51°17.411 2°52.271 16.5 5 11.7 101400 87
2001-11-12 09:37:48 51°17.427 2°52.254 15.3 4 11.7 101400 87
2001-11-12 09:37:53 51°17.442 2°52.238 15.9 6 11.7 101410 87
2001-11-12 09:37:57 51°17.454 2°52.225 15.5 2 11.7 101410 87
2001-11-12 09:38:03 51°17.473 2°52.205 15.1 6 11.7 101400 87
2001-11-12 09:38:08 51°17.489 2°52.189 15.6 359 11.7 101400 87
2001-11-12 09:38:13 51°17.504 2°52.172 15.4 1 11.7 101410 87
2001-11-12 09:38:18 51°17.519 2°52.155 15.7 3 11.7 101410 87
2001-11-12 09:38:23 51°17.534 2°52.137 14.8 356 11.7 101410 87
2001-11-12 09:38:28 51°17.549 2°52.119 15.6 358 11.7 101410 87
2001-11-12 09:38:33 51°17.564 2°52.101 15.4 357 11.7 101400 87
2001-11-12 09:38:38 51°17.578 2°52.082 16.1 357 11.7 101400 87
2001-11-12 09:38:43 51°17.593 2°52.064 16.9   11.7 101410 87
2001-11-12 09:38:48 51°17.608 2°52.046 16.9 4 11.7 101410 87
2001-11-12 09:38:53 51°17.622 2°52.028 17.6 360 11.7 101410 87
2001-11-12 09:38:58 51°17.638 2°52.01 16.4 4 11.7 101410 87
2001-11-12 09:39:02 51°17.65 2°51.997 16.4 4 11.7 101400 87
2001-11-12 09:39:08 51°17.669 2°51.978 16.7 2 11.7 101400 87
2001-11-12 09:39:13 51°17.685 2°51.962 16.7 6 11.7 101400 87
2001-11-12 09:39:17 51°17.698 2°51.949 16 8 11.7 101400 87
2001-11-12 09:39:23 51°17.716 2°51.93 16.6 4 11.7 101400 87
2001-11-12 09:39:28 51°17.732 2°51.913 16.9 3 11.7 101400 87
2001-11-12 09:39:33 51°17.747 2°51.896 16.5 4 11.7 101400 87
2001-11-12 09:39:38 51°17.762 2°51.878 15.8 359 11.7 101400 87
2001-11-12 09:39:42 51°17.775 2°51.864 16.9 3 11.7 101400 87
2001-11-12 09:39:48 51°17.793 2°51.844 16.6 359 11.7 101400 87
2001-11-12 09:39:53 51°17.808 2°51.827 16.7 8 11.7 101400 86
2001-11-12 09:39:58 51°17.824 2°51.81 16.4 11 11.7 101400 86
2001-11-12 09:40:02 51°17.837 2°51.798 16.3 9 11.7 101400 86
2001-11-12 09:40:07 51°17.853 2°51.782 16 2 11.7 101400 86
2001-11-12 09:40:13 51°17.872 2°51.762 14.9 359 11.8 101400 86
2001-11-12 09:40:17 51°17.885 2°51.75 15.9 3 11.8 101400 86
2001-11-12 09:40:23 51°17.903 2°51.729 16.1 6 11.7 101410 86
2001-11-12 09:40:28 51°17.919 2°51.713 15.1 5 11.7 101410 86
2001-11-12 09:40:33 51°17.934 2°51.697 17.4 6 11.7 101400 86
2001-11-12 09:40:38 51°17.951 2°51.682 16.4 8 11.7 101400 86
2001-11-12 09:40:43 51°17.967 2°51.667 16.9 9 11.7 101400 86
2001-11-12 09:40:48 51°17.983 2°51.652 16.1 7 11.7 101400 86
2001-11-12 09:40:53 51°18 2°51.636 15.5 3 11.7 101410 86
2001-11-12 09:40:57 51°18.012 2°51.623 16.3 356 11.7 101410 86
2001-11-12 09:41:03 51°18.031 2°51.603 15.6 3 11.8 101400 86
2001-11-12 09:41:08 51°18.046 2°51.586 15.8 1 11.8 101400 86
2001-11-12 09:41:13 51°18.061 2°51.569 16.4 353 11.8 101400 86
2001-11-12 09:41:18 51°18.076 2°51.552 17 4 11.8 101400 86
2001-11-12 09:41:23 51°18.091 2°51.535 16 5 11.8 101410 86
2001-11-12 09:41:28 51°18.107 2°51.518 16.3 3 11.8 101410 86
2001-11-12 09:41:33 51°18.123 2°51.503 16.5 5 11.8 101410 86
2001-11-12 09:41:38 51°18.139 2°51.487 16.4 6 11.8 101410 86
2001-11-12 09:41:43 51°18.155 2°51.472 16.9 8 11.8 101390 86
2001-11-12 09:41:48 51°18.171 2°51.456 16.5 7 11.8 101390 86
2001-11-12 09:41:53 51°18.187 2°51.441 15.9 5 11.8 101400 86
2001-11-12 09:41:57 51°18.2 2°51.429 16.7 11 11.8 101400 86
2001-11-12 09:42:03 51°18.221 2°51.413 17.2 11 11.8 101400 86
2001-11-12 09:42:08 51°18.239 2°51.402 16.6 26 11.8 101400 86
2001-11-12 09:42:13 51°18.257 2°51.393 16 16 11.8 101400 86
2001-11-12 09:42:18 51°18.276 2°51.387 13.7 20 11.8 101400 86
2001-11-12 09:42:23 51°18.296 2°51.385 13.7 19 11.8 101390 86
2001-11-12 09:42:28 51°18.315 2°51.384 9.5 27 11.8 101390 86
2001-11-12 09:42:33 51°18.336 2°51.387 8 36 11.8 101410 86
2001-11-12 09:42:37 51°18.351 2°51.39 7.1 29 11.8 101410 86
2001-11-12 09:42:43 51°18.374 2°51.398 8 28 11.8 101410 86
2001-11-12 09:42:48 51°18.394 2°51.405 7 30 11.8 101410 86
2001-11-12 09:42:53 51°18.414 2°51.414 6.3 33 11.8 101410 86
2001-11-12 09:42:57 51°18.43 2°51.422 6.9 31 11.8 101410 86
2001-11-12 09:43:03 51°18.454 2°51.435 6.1 35 11.8 101410 86
2001-11-12 09:43:08 51°18.473 2°51.447 6.7 30 11.8 101410 86
2001-11-12 09:43:13 51°18.492 2°51.459 7 28 11.8 101410 86
2001-11-12 09:43:18 51°18.511 2°51.474 7.2 33 11.8 101410 86
2001-11-12 09:43:23 51°18.53 2°51.489 6.3 33 11.8 101410 86
2001-11-12 09:43:28 51°18.549 2°51.504 5.2 30 11.8 101410 86
2001-11-12 09:43:32 51°18.564 2°51.516 5.8 34 11.8 101410 86
2001-11-12 09:43:37 51°18.583 2°51.531 6.3 33 11.8 101410 86
2001-11-12 09:43:43 51°18.606 2°51.548 5.9 39 11.8 101420 86
2001-11-12 09:43:47 51°18.621 2°51.559 6.9 33 11.8 101420 86
2001-11-12 09:43:53 51°18.644 2°51.575 5 42 11.8 101410 86
2001-11-12 09:43:58 51°18.663 2°51.588 5.3 35 11.8 101410 86
2001-11-12 09:44:03 51°18.683 2°51.599 6.3 39 11.8 101410 86
2001-11-12 09:44:08 51°18.703 2°51.61 6.5 27 11.8 101410 86
2001-11-12 09:44:13 51°18.723 2°51.62 5.6 35 11.8 101410 86
2001-11-12 09:44:17 51°18.739 2°51.628 8 39 11.8 101410 86
2001-11-12 09:44:23 51°18.762 2°51.637 8.3 41 11.8 101410 86
2001-11-12 09:44:28 51°18.783 2°51.645 12 25 11.8 101410 86
2001-11-12 09:44:33 51°18.803 2°51.651 11.1 23 11.8 101410 86
2001-11-12 09:44:37 51°18.819 2°51.656 11.8 29 11.8 101410 86
2001-11-12 09:44:43 51°18.844 2°51.662 11.1 23 11.8 101400 86
2001-11-12 09:44:48 51°18.864 2°51.666 11.1 31 11.8 101400 86
2001-11-12 09:44:53 51°18.885 2°51.669 15.6 25 11.8 101410 86
2001-11-12 09:44:57 51°18.901 2°51.67 12.3 29 11.8 101410 86
2001-11-12 09:45:03 51°18.925 2°51.67 14.4 22 11.8 101410 86
2001-11-12 09:45:08 51°18.945 2°51.668 15.1 17 11.8 101410 86
2001-11-12 09:45:13 51°18.964 2°51.663 15.8 17 11.8 101400 86
2001-11-12 09:45:18 51°18.983 2°51.658 16.1 18 11.8 101400 86
2001-11-12 09:45:23 51°19.001 2°51.65 14.8 11 11.8 101410 86
2001-11-12 09:45:27 51°19.015 2°51.643 15.9 11 11.8 101410 86
2001-11-12 09:45:33 51°19.036 2°51.629 15.3 14 11.8 101400 86
2001-11-12 09:45:38 51°19.053 2°51.616 15.5 11 11.8 101400 86
2001-11-12 09:45:43 51°19.07 2°51.604 15.9 16 11.8 101400 86
2001-11-12 09:45:48 51°19.088 2°51.592 16.4 19 11.8 101400 86
2001-11-12 09:45:53 51°19.105 2°51.58 16.3 16 11.8 101400 86
2001-11-12 09:45:57 51°19.119 2°51.572 16.7 19 11.8 101400 86
2001-11-12 09:46:03 51°19.141 2°51.561 16.4 15 11.8 101400 86
2001-11-12 09:46:08 51°19.159 2°51.552 16.3 14 11.8 101400 86
2001-11-12 09:46:13 51°19.177 2°51.542 16.6 16 11.8 101400 86
2001-11-12 09:46:17 51°19.191 2°51.533 17.3 13 11.8 101400 86
2001-11-12 09:46:23 51°19.211 2°51.518 15.9 14 11.8 101400 86
2001-11-12 09:46:28 51°19.228 2°51.505 17.9 11 11.8 101400 86
2001-11-12 09:46:32 51°19.242 2°51.494 17 10 11.8 101390 86
2001-11-12 09:46:37 51°19.258 2°51.48 15.9 12 11.8 101390 86
2001-11-12 09:46:43 51°19.278 2°51.463 15.9 11 11.8 101400 86
2001-11-12 09:46:48 51°19.295 2°51.449 15.1 13 11.8 101400 86
2001-11-12 09:46:53 51°19.311 2°51.433 15.8 14 11.8 101390 86
2001-11-12 09:46:58 51°19.327 2°51.419 16.8 11 11.8 101390 86
2001-11-12 09:47:02 51°19.34 2°51.407 15.8 13 11.9 101400 86
2001-11-12 09:47:08 51°19.36 2°51.39 16.4 13 11.9 101400 86
2001-11-12 09:47:13 51°19.377 2°51.376 15.8 5 11.8 101400 86
2001-11-12 09:47:17 51°19.39 2°51.365 16.5 13 11.8 101400 86
2001-11-12 09:47:23 51°19.41 2°51.348 16.2 13 11.8 101390 86
2001-11-12 09:47:28 51°19.426 2°51.335 15.3 5 11.8 101390 86
2001-11-12 09:47:33 51°19.443 2°51.321 17.4 14 11.9 101390 86
2001-11-12 09:47:38 51°19.46 2°51.308 17.2 7 11.9 101390 86
2001-11-12 09:47:43 51°19.477 2°51.294 16.7 15 11.9 101390 86
2001-11-12 09:47:48 51°19.493 2°51.281 16 12 11.9 101390 86
2001-11-12 09:47:53 51°19.509 2°51.266 17.6 13 11.9 101400 86
2001-11-12 09:47:57 51°19.523 2°51.256 16 13 11.9 101400 86
2001-11-12 09:48:03 51°19.543 2°51.24 14.9 8 11.9 101380 86
2001-11-12 09:48:08 51°19.56 2°51.227 15.3 12 11.9 101380 86
2001-11-12 09:48:13 51°19.577 2°51.215 16 11 11.9 101390 86
2001-11-12 09:48:18 51°19.595 2°51.204 17.3 18 11.9 101390 86
2001-11-12 09:48:23 51°19.613 2°51.194 16.3 19 11.9 101390 86
2001-11-12 09:48:28 51°19.631 2°51.185 17.4 21 11.9 101390 86
2001-11-12 09:48:33 51°19.65 2°51.177 16.4 20 11.9 101400 86
2001-11-12 09:48:37 51°19.665 2°51.171 16.2 20 11.9 101400 86
2001-11-12 09:48:43 51°19.687 2°51.161 14.2 14 11.9 101390 86
2001-11-12 09:48:48 51°19.705 2°51.153 15 12 11.9 101390 86
2001-11-12 09:48:52 51°19.719 2°51.144 15.4 15 11.9 101400 85
2001-11-12 09:48:57 51°19.737 2°51.134 14.7 7 11.9 101400 85
2001-11-12 09:49:03 51°19.757 2°51.119 15.5 6 11.9 101400 85
2001-11-12 09:49:08 51°19.774 2°51.107 15.2 16 11.9 101400 85
2001-11-12 09:49:13 51°19.791 2°51.095 14.7 7 11.9 101390 86
2001-11-12 09:49:17 51°19.805 2°51.085 14.6 12 11.9 101390 86
2001-11-12 09:49:23 51°19.825 2°51.071 15.9 12 11.9 101400 86
2001-11-12 09:49:28 51°19.842 2°51.059 16.5 14 11.9 101400 86
2001-11-12 09:49:33 51°19.86 2°51.048 14.5 10 11.9 101400 86
2001-11-12 09:49:38 51°19.877 2°51.038 16.2 19 11.9 101400 86
2001-11-12 09:49:43 51°19.895 2°51.027 16.5 14 11.9 101400 86
2001-11-12 09:49:48 51°19.913 2°51.017 16.8 16 11.9 101400 86
2001-11-12 09:49:53 51°19.93 2°51.007 16.2 18 11.9 101410 86
2001-11-12 09:49:58 51°19.948 2°50.996 14.8 12 11.9 101410 86
2001-11-12 09:50:03 51°19.965 2°50.984 15.9 14 11.9 101400 85
2001-11-12 09:50:08 51°19.982 2°50.971 16.4 13 11.9 101400 85
2001-11-12 09:50:13 51°19.998 2°50.958 17.3 13 11.9 101380 85
2001-11-12 09:50:18 51°20.015 2°50.945 14.4 14 11.9 101380 85
2001-11-12 09:50:23 51°20.032 2°50.932 15.1 16 11.9 101400 85
2001-11-12 09:50:28 51°20.049 2°50.919 15.7 10 11.9 101400 85
2001-11-12 09:50:33 51°20.065 2°50.907 15.5 12 11.9 101390 85
2001-11-12 09:50:37 51°20.079 2°50.896 15.2 12 11.9 101390 85
2001-11-12 09:50:43 51°20.099 2°50.881 16.4 9 11.9 101400 85
2001-11-12 09:50:48 51°20.116 2°50.869 16.7 14 11.9 101400 85
2001-11-12 09:50:53 51°20.133 2°50.858 16.3 14 11.9 101390 85
2001-11-12 09:50:58 51°20.151 2°50.846 15.6 13 11.9 101390 85
2001-11-12 09:51:03 51°20.168 2°50.834 16.6 14 11.9 101400 85
2001-11-12 09:51:08 51°20.185 2°50.823 17.3 22 11.9 101400 85
2001-11-12 09:51:13 51°20.203 2°50.813 17.7 21 11.9 101400 85
2001-11-12 09:51:18 51°20.221 2°50.803 17.5 19 11.9 101400 85
2001-11-12 09:51:23 51°20.238 2°50.793 17 16 11.9 101390 85
2001-11-12 09:51:28 51°20.256 2°50.783 16.7 24 11.9 101390 85
2001-11-12 09:51:33 51°20.274 2°50.774 15.9 19 11.9 101390 85
2001-11-12 09:51:38 51°20.293 2°50.765 16.5 19 11.9 101390 85
2001-11-12 09:51:42 51°20.307 2°50.759 14.8 24 11.9 101400 84
2001-11-12 09:51:47 51°20.326 2°50.751 14.9 22 11.9 101400 84
2001-11-12 09:51:53 51°20.348 2°50.742 14.5 24 11.9 101390 84
2001-11-12 09:51:57 51°20.363 2°50.736 16 21 11.9 101390 84
2001-11-12 09:52:03 51°20.386 2°50.729 14.8 28 11.9 101400 84
2001-11-12 09:52:08 51°20.405 2°50.722 15 23 11.9 101400 84
2001-11-12 09:52:13 51°20.424 2°50.715 15.5 19 11.9 101390 84
2001-11-12 09:52:18 51°20.442 2°50.708 15.7 18 11.9 101390 84
2001-11-12 09:52:23 51°20.461 2°50.701 16 20 11.9 101400 84
2001-11-12 09:52:28 51°20.48 2°50.694 16.4 17 11.9 101400 84
2001-11-12 09:52:33 51°20.499 2°50.686 16.6 22 11.9 101390 84
2001-11-12 09:52:37 51°20.514 2°50.679 15.4 21 11.9 101390 84
2001-11-12 09:52:43 51°20.536 2°50.669 15.5 26 11.9 101390 84
2001-11-12 09:52:48 51°20.554 2°50.661 16.6 19 11.9 101390 84
2001-11-12 09:52:53 51°20.573 2°50.652 16.4 22 11.9 101390 84
2001-11-12 09:52:57 51°20.587 2°50.644 13 27 11.9 101390 84
2001-11-12 09:53:03 51°20.609 2°50.633 15.7 16 11.9 101400 84
2001-11-12 09:53:08 51°20.627 2°50.622 16.6 22 11.9 101400 84
2001-11-12 09:53:13 51°20.645 2°50.611 17.3 17 11.9 101380 84
2001-11-12 09:53:17 51°20.659 2°50.603 15.9 15 11.9 101380 84
2001-11-12 09:53:23 51°20.681 2°50.589 15.8 20 11.9 101390 84
2001-11-12 09:53:28 51°20.699 2°50.578 15.1 22 11.9 101390 84
2001-11-12 09:53:32 51°20.713 2°50.57 16.5 22 11.9 101380 84
2001-11-12 09:53:38 51°20.736 2°50.559 14.9 23 11.9 101380 84
2001-11-12 09:53:43 51°20.754 2°50.55 15.9 16 11.9 101390 84
2001-11-12 09:53:47 51°20.769 2°50.544 14.9 23 11.9 101390 84
2001-11-12 09:53:53 51°20.793 2°50.536 16.3 20 11.9 101390 85
2001-11-12 09:53:58 51°20.812 2°50.531 15.3 21 11.9 101390 85
2001-11-12 09:54:03 51°20.831 2°50.524 15.1 16 11.9 101400 85
2001-11-12 09:54:07 51°20.846 2°50.518 16.5 18 11.9 101400 85
2001-11-12 09:54:13 51°20.869 2°50.508 15.7 18 11.9 101400 85
2001-11-12 09:54:18 51°20.887 2°50.499 15.9 17 11.9 101400 85
2001-11-12 09:54:23 51°20.906 2°50.49 17.3 18 11.9 101390 85
2001-11-12 09:54:28 51°20.925 2°50.48 15.2 26 11.9 101390 85
2001-11-12 09:54:33 51°20.943 2°50.471 15.3 23 11.9 101390 85
2001-11-12 09:54:38 51°20.961 2°50.461 14.4 23 11.9 101390 85
2001-11-12 09:54:43 51°20.98 2°50.452 14.8 22 11.9 101390 85
2001-11-12 09:54:48 51°20.998 2°50.443 15.7 26 11.9 101390 85
2001-11-12 09:54:52 51°21.014 2°50.436 15.9 27 11.9 101400 84
2001-11-12 09:54:57 51°21.032 2°50.428 14.7 20 11.9 101400 84
2001-11-12 09:55:03 51°21.055 2°50.418 15.8 27 11.9 101400 85
2001-11-12 09:55:08 51°21.074 2°50.41 16.1 19 11.9 101400 85
2001-11-12 09:55:13 51°21.093 2°50.402 15.2 24 11.9 101380 84
2001-11-12 09:55:18 51°21.112 2°50.394 15.1 23 11.9 101380 84
2001-11-12 09:55:23 51°21.131 2°50.386 17.7 15 11.9 101380 84
2001-11-12 09:55:28 51°21.15 2°50.377 17.8 19 11.9 101380 84
2001-11-12 09:55:33 51°21.168 2°50.368 15.3 19 11.9 101380 84
2001-11-12 09:55:38 51°21.186 2°50.358 16.2 24 11.9 101380 84
2001-11-12 09:55:43 51°21.204 2°50.347 18.4 17 11.9 101390 84
2001-11-12 09:55:48 51°21.223 2°50.337 17.8 20 11.9 101390 84
2001-11-12 09:55:53 51°21.241 2°50.326 17.2 19 11.9 101390 84
2001-11-12 09:55:58 51°21.259 2°50.316 16.1 20 11.9 101390 84
2001-11-12 09:56:03 51°21.277 2°50.306 15.5 25 11.9 101390 84
2001-11-12 09:56:08 51°21.296 2°50.297 16.5 22 11.9 101390 84
2001-11-12 09:56:12 51°21.311 2°50.29 15.6 18 11.9 101380 84
2001-11-12 09:56:17 51°21.33 2°50.282 13.7 26 11.9 101380 84
2001-11-12 09:56:23 51°21.353 2°50.273 15.3 25 11.9 101390 84
2001-11-12 09:56:28 51°21.372 2°50.266 14.1 25 11.9 101390 84
2001-11-12 09:56:33 51°21.391 2°50.26 14.9 22 11.9 101380 84
2001-11-12 09:56:37 51°21.407 2°50.256 12.6 30 11.9 101380 84
2001-11-12 09:56:43 51°21.43 2°50.25 14.2 28 11.9 101390 84
2001-11-12 09:56:48 51°21.45 2°50.245 14.9 16 11.9 101390 84
2001-11-12 09:56:53 51°21.47 2°50.241 15.7 20 12 101380 84
2001-11-12 09:56:57 51°21.485 2°50.236 15.3 20 12 101380 84
2001-11-12 09:57:03 51°21.509 2°50.228 14.8 20 12 101390 84
2001-11-12 09:57:08 51°21.528 2°50.22 15.8 21 12 101390 84
2001-11-12 09:57:13 51°21.546 2°50.212 14.7 16 12 101390 84
2001-11-12 09:57:18 51°21.565 2°50.203 15.5 21 12 101390 84
2001-11-12 09:57:23 51°21.583 2°50.193 16.7 14 12 101390 84
2001-11-12 09:57:28 51°21.602 2°50.183 17 17 12 101390 84
2001-11-12 09:57:33 51°21.62 2°50.174 17.6 22 12 101380 84
2001-11-12 09:57:37 51°21.635 2°50.166 15.7 21 12 101380 84
2001-11-12 09:57:43 51°21.658 2°50.157 14.6 22 12 101390 84
2001-11-12 09:57:48 51°21.677 2°50.15 15.7 20 12 101390 84
2001-11-12 09:57:53 51°21.697 2°50.143 15.3 19 12 101380 84
2001-11-12 09:57:58 51°21.716 2°50.135 15.3 15 12 101380 84
2001-11-12 09:58:03 51°21.734 2°50.125 15.1 18 12 101380 84
2001-11-12 09:58:08 51°21.752 2°50.116 15.9 16 12 101380 84
2001-11-12 09:58:13 51°21.77 2°50.104 15.1 8 12 101380 84
2001-11-12 09:58:18 51°21.787 2°50.091 15.4 12 12 101380 84
2001-11-12 09:58:23 51°21.804 2°50.078 15 10 12 101400 85
2001-11-12 09:58:28 51°21.822 2°50.066 16.2 20 12 101400 85
2001-11-12 09:58:33 51°21.839 2°50.054 16 16 12.1 101380 85
2001-11-12 09:58:38 51°21.857 2°50.044 14.7 19 12.1 101380 85
2001-11-12 09:58:43 51°21.875 2°50.034 15.3 21 12.1 101380 85
2001-11-12 09:58:48 51°21.893 2°50.025 16.2 18 12.1 101380 85
2001-11-12 09:58:53 51°21.911 2°50.018 16.4 19 12.1 101390 85
2001-11-12 09:58:58 51°21.93 2°50.011 15.6 17 12.1 101390 85
2001-11-12 09:59:03 51°21.949 2°50.003 16.6 22 12.1 101380 84
2001-11-12 09:59:08 51°21.967 2°49.994 15.8 20 12.1 101380 84
2001-11-12 09:59:13 51°21.985 2°49.984 14.9 13 12.1 101380 84
2001-11-12 09:59:18 51°22.003 2°49.974 16.5 19 12.1 101380 84
2001-11-12 09:59:23 51°22.02 2°49.964 15.9 23 12.1 101390 84
2001-11-12 09:59:28 51°22.038 2°49.953 15.8 14 12.1 101390 84
2001-11-12 09:59:33 51°22.056 2°49.942 16.1 17 12.1 101380 84
2001-11-12 09:59:37 51°22.07 2°49.933 15.1 10 12.1 101380 84
2001-11-12 09:59:43 51°22.091 2°49.92 16.9 17 12.1 101390 84
2001-11-12 09:59:48 51°22.109 2°49.909 17.1 21 12.1 101390 84
2001-11-12 09:59:52 51°22.123 2°49.901 15.8 22 12.1 101380 84
2001-11-12 09:59:58 51°22.144 2°49.889 16.3 21 12.1 101380 84
2001-11-12 10:00:03 51°22.162 2°49.88 16.3 22 12.1 101380 84
2001-11-12 10:00:08 51°22.181 2°49.871 16.1 22 12.1 101380 84
2001-11-12 10:00:13 51°22.2 2°49.863 15.5 20 12.1 101380 84
2001-11-12 10:00:18 51°22.218 2°49.857 15.5 22 12.1 101380 84
2001-11-12 10:00:23 51°22.237 2°49.85 14 25 12.1 101370 84
2001-11-12 10:00:28 51°22.256 2°49.844 14.4 26 12.1 101370 84
2001-11-12 10:00:33 51°22.274 2°49.836 14.4 21 12.1 101390 84
2001-11-12 10:00:37 51°22.289 2°49.829 14.8 20 12.1 101390 84
2001-11-12 10:00:43 51°22.311 2°49.819 14.8 22 12.1 101390 84
2001-11-12 10:00:48 51°22.33 2°49.811 14.2 24 12.1 101390 84
2001-11-12 10:00:53 51°22.348 2°49.803 16.1 25 12.1 101380 84
2001-11-12 10:00:58 51°22.367 2°49.796 16.5 24 12.1 101380 84
2001-11-12 10:01:02 51°22.382 2°49.791 13.4 24 12.1 101390 84
2001-11-12 10:01:08 51°22.405 2°49.784 13.8 24 12.1 101390 84
2001-11-12 10:01:13 51°22.424 2°49.777 14.6 18 12.1 101390 84
2001-11-12 10:01:17 51°22.439 2°49.773 14.1 19 12.1 101390 84
2001-11-12 10:01:23 51°22.461 2°49.763 15.2 21 12.1 101380 84
2001-11-12 10:01:28 51°22.479 2°49.754 15.9 21 12.1 101380 84
2001-11-12 10:01:33 51°22.497 2°49.745 15.1 23 12.1 101380 84
2001-11-12 10:01:38 51°22.516 2°49.736 14.9 18 12.1 101380 84
2001-11-12 10:01:43 51°22.534 2°49.727 13.1 26 12.1 101370 84
2001-11-12 10:01:48 51°22.553 2°49.719 12.9 29 12.1 101370 84
2001-11-12 10:01:53 51°22.571 2°49.712 13.8 25 12.1 101380 84
2001-11-12 10:01:58 51°22.59 2°49.706 14.3 21 12.1 101380 84
2001-11-12 10:02:03 51°22.609 2°49.699 15 17 12.1 101370 84
2001-11-12 10:02:08 51°22.628 2°49.692 12.9 23 12.1 101370 84
2001-11-12 10:02:12 51°22.643 2°49.686 12.8 24 12.1 101370 83
2001-11-12 10:02:18 51°22.666 2°49.677 14.5 21 12.1 101370 83
2001-11-12 10:02:23 51°22.685 2°49.671 14.1 21 12.1 101370 84
2001-11-12 10:02:28 51°22.704 2°49.663 13.5 15 12.1 101370 84
2001-11-12 10:02:33 51°22.723 2°49.656 13.3 23 12.1 101380 84
2001-11-12 10:02:38 51°22.741 2°49.648 15.3 20 12.1 101380 84
2001-11-12 10:02:43 51°22.761 2°49.642 11.4 29 12.1 101380 84
2001-11-12 10:02:48 51°22.779 2°49.633 12.8 19 12.1 101380 84
2001-11-12 10:02:53 51°22.798 2°49.627 12.6 27 12.1 101390 84
2001-11-12 10:02:58 51°22.817 2°49.618 13.8 15 12.1 101390 84
2001-11-12 10:03:03 51°22.836 2°49.613 16.3 22 12.1 101380 84
2001-11-12 10:03:08 51°22.855 2°49.603 13 17 12.1 101380 84
2001-11-12 10:03:13 51°22.874 2°49.598 11.2 30 12.1 101380 84
2001-11-12 10:03:18 51°22.893 2°49.59 14.2 21 12.1 101380 84
2001-11-12 10:03:23 51°22.912 2°49.584 13.1 25 12.1 101380 84
2001-11-12 10:03:28 51°22.931 2°49.577 14.5 18 12.1 101380 84
2001-11-12 10:03:33 51°22.951 2°49.572 14.2 30 12.1 101370 84
2001-11-12 10:03:38 51°22.969 2°49.564 12.5 23 12.1 101370 84
2001-11-12 10:03:43 51°22.989 2°49.558 13.7 29 12.1 101380 84
2001-11-12 10:03:48 51°23.008 2°49.551 11.6 26 12.1 101380 84
2001-11-12 10:03:53 51°23.027 2°49.545 12.7 22 12.1 101380 84
2001-11-12 10:03:58 51°23.046 2°49.538 12.6 18 12.1 101380 84
2001-11-12 10:04:02 51°23.062 2°49.533 12.2 24 12.1 101370 84
2001-11-12 10:04:08 51°23.085 2°49.526 12.6 19 12.1 101370 84
2001-11-12 10:04:13 51°23.104 2°49.518 13.7 14 12.1 101380 84
2001-11-12 10:04:18 51°23.123 2°49.512 15.2 22 12.1 101380 84
2001-11-12 10:04:23 51°23.142 2°49.505 13.8 24 12.1 101380 84
2001-11-12 10:04:28 51°23.161 2°49.498 14.6 20 12.1 101380 84
2001-11-12 10:04:33 51°23.18 2°49.491 11.8 25 12.1 101370 84
2001-11-12 10:04:38 51°23.199 2°49.484 13.8 21 12.1 101370 84
2001-11-12 10:04:43 51°23.219 2°49.477 14.5 26 12.2 101370 84
2001-11-12 10:04:48 51°23.238 2°49.47 11.8 21 12.2 101370 84
2001-11-12 10:04:53 51°23.257 2°49.462 13.8 15 12.1 101370 84
2001-11-12 10:04:58 51°23.276 2°49.457 14.5 27 12.1 101370 84
2001-11-12 10:05:03 51°23.295 2°49.449 15.6 20 12.1 101370 84
2001-11-12 10:05:08 51°23.314 2°49.443 14.3 22 12.1 101370 84
2001-11-12 10:05:13 51°23.333 2°49.435 14 19 12.2 101380 84
2001-11-12 10:05:18 51°23.352 2°49.429 13 26 12.2 101380 84
2001-11-12 10:05:22 51°23.367 2°49.422 12.1 17 12.1 101380 84
2001-11-12 10:05:28 51°23.39 2°49.415 13.1 22 12.1 101380 84
2001-11-12 10:05:33 51°23.409 2°49.407 15 24 12.2 101370 84
2001-11-12 10:05:37 51°23.424 2°49.402 12.7 27 12.2 101370 84
2001-11-12 10:05:43 51°23.447 2°49.394 15 24 12.2 101380 84
2001-11-12 10:05:48 51°23.466 2°49.388 13.4 25 12.2 101380 84
2001-11-12 10:05:52 51°23.481 2°49.382 11 29 12.2 101380 84
2001-11-12 10:05:58 51°23.504 2°49.373 13.2 23 12.2 101380 84
2001-11-12 10:06:03 51°23.523 2°49.366 12.2 20 12.1 101360 83
2001-11-12 10:06:08 51°23.542 2°49.36 14 20 12.1 101360 83
2001-11-12 10:06:13 51°23.561 2°49.351 14.4 18 12.1 101370 83
2001-11-12 10:06:18 51°23.58 2°49.345 14.5 24 12.1 101370 83
2001-11-12 10:06:22 51°23.595 2°49.34 12.2 24 12.1 101370 83
2001-11-12 10:06:27 51°23.614 2°49.331 14.2 25 12.1 101370 83
2001-11-12 10:06:33 51°23.637 2°49.323 12 27 12.1 101370 84
2001-11-12 10:06:37 51°23.651 2°49.316 14 19 12.1 101370 84
2001-11-12 10:06:43 51°23.674 2°49.309 10.4 28 12.1 101370 84
2001-11-12 10:06:48 51°23.693 2°49.3 14.1 26 12.1 101370 84
2001-11-12 10:06:52 51°23.708 2°49.296 13 31 12.1 101380 83
2001-11-12 10:06:58 51°23.73 2°49.286 12.5 19 12.1 101380 83
2001-11-12 10:07:02 51°23.746 2°49.282 11.1 27 12.1 101380 83
2001-11-12 10:07:08 51°23.768 2°49.272 13.1 16 12.1 101380 83
2001-11-12 10:07:13 51°23.788 2°49.268 13.8 26 12.1 101370 83
2001-11-12 10:07:18 51°23.806 2°49.26 13.1 22 12.1 101370 83
2001-11-12 10:07:23 51°23.826 2°49.255 12.5 26 12.1 101370 83
2001-11-12 10:07:28 51°23.844 2°49.247 14 21 12.1 101370 83
2001-11-12 10:07:32 51°23.86 2°49.244 10.9 21 12.1 101380 83
2001-11-12 10:07:38 51°23.883 2°49.235 13.4 22 12.1 101380 83
2001-11-12 10:07:43 51°23.902 2°49.229 12 26 12.1 101370 83
2001-11-12 10:07:48 51°23.921 2°49.222 13.4 21 12.1 101370 83
2001-11-12 10:07:53 51°23.94 2°49.217 14.2 24 12.1 101370 83
2001-11-12 10:07:57 51°23.955 2°49.21 13.7 22 12.1 101370 83
2001-11-12 10:08:03 51°23.979 2°49.203 14.7 22 12.1 101370 83
2001-11-12 10:08:08 51°23.997 2°49.195 14.5 25 12.1 101370 83
2001-11-12 10:08:13 51°24.017 2°49.19 13.5 26 12.1 101370 83
2001-11-12 10:08:18 51°24.036 2°49.182 13.9 21 12.1 101370 83
2001-11-12 10:08:22 51°24.051 2°49.178 13.1 26 12.1 101380 83
2001-11-12 10:08:28 51°24.074 2°49.169 13.2 17 12.1 101380 83
2001-11-12 10:08:33 51°24.093 2°49.163 12.1 26 12.1 101360 83
2001-11-12 10:08:38 51°24.112 2°49.156 14.3 19 12.1 101360 83
2001-11-12 10:08:43 51°24.131 2°49.15 12.9 22 12.1 101360 83
2001-11-12 10:08:48 51°24.15 2°49.143 14 20 12.1 101360 83
2001-11-12 10:08:52 51°24.166 2°49.138 13 26 12.1 101360 84
2001-11-12 10:08:58 51°24.189 2°49.13 13.8 19 12.1 101360 84
2001-11-12 10:09:03 51°24.208 2°49.123 13.9 22 12.2 101370 84
2001-11-12 10:09:08 51°24.227 2°49.117 12.1 22 12.2 101370 84
2001-11-12 10:09:12 51°24.242 2°49.111 14.3 20 12.2 101360 84
2001-11-12 10:09:18 51°24.265 2°49.104 12.8 26 12.2 101360 84
2001-11-12 10:09:23 51°24.284 2°49.097 12.8 22 12.2 101380 83
2001-11-12 10:09:28 51°24.303 2°49.091 14.1 21 12.2 101380 83
2001-11-12 10:09:33 51°24.322 2°49.084 12.1 28 12.1 101370 83
2001-11-12 10:09:38 51°24.341 2°49.078 13.4 23 12.1 101370 83
2001-11-12 10:09:43 51°24.36 2°49.071 10.8 26 12.1 101360 83
2001-11-12 10:09:48 51°24.379 2°49.065 12.5 28 12.1 101360 83
2001-11-12 10:09:53 51°24.398 2°49.058 13.6 23 12.1 101370 83
2001-11-12 10:09:58 51°24.417 2°49.051 12.7 24 12.1 101370 83
2001-11-12 10:10:03 51°24.436 2°49.045 12.8 27 12.2 101370 83
2001-11-12 10:10:08 51°24.455 2°49.038 11.1 33 12.2 101370 83
2001-11-12 10:10:13 51°24.474 2°49.032 12.7 26 12.2 101370 83
2001-11-12 10:10:18 51°24.494 2°49.025 10.3 23 12.2 101370 83
2001-11-12 10:10:23 51°24.513 2°49.019 9.9 29 12.2 101360 84
2001-11-12 10:10:28 51°24.532 2°49.013 10.6 31 12.2 101360 84